Weather History for MROC - August, 2012

Change the Weather History Date:

Saturday, August 25, 2012

  Actual Average Record
Temperature  
Mean Temperature 72 °F -  
Max Temperature 80 °F 79 °F 86 °F (1997)
Min Temperature 65 °F 63 °F 62 °F (2014)
Cooling Degree Days 8    
Growing Degree Days 22 (Base 50)    
Moisture  
Dew Point 66 °F    
Average Humidity 82    
Maximum Humidity 94    
Minimum Humidity 57    
Precipitation  
Precipitation 0.63 in 0.45 in - ()
Sea Level Pressure  
Sea Level Pressure 29.93 in    
Wind  
Wind Speed 5 mph ()    
Max Wind Speed 14 mph    
Max Gust Speed -    
Visibility 6.9 miles    
Events Fog , Rain , Thunderstorm    
Averages and records for this station are not official NWS values.
T = Trace of Precipitation, MM = Missing Value Source: Averaged Metar Reports

Daily Weather History Graph

Daily Weather History Graph

Search for Another Location

Airport or City:

Trip Planner

Search our weather history database for the weather conditions in past years. The results will help you decide how hot, cold, wet, or windy it might be!

Date:

Astronomy

Aug. 25, 2012 Rise Set
Actual Time 5:27 AM CST 5:49 PM CST
Civil Twilight 5:06 AM CST 6:10 PM CST
Nautical Twilight 4:41 AM CST 6:35 PM CST
Astronomical Twilight 4:16 AM CST 7:00 PM CST
Moon 12:47 PM CST (8/25) No Moon Set
Length of Visible Light 13h 04m
Length of Day
12h 21m
Waxing Gibbous, 63% of the Moon is Illuminated
Aug 25
Waxing Gibbous
Aug 31
Full
Sep 8
Last Quarter
Sep 15
New
Sep 22
First Quarter

Hourly Weather History & Observations

Time (CST) Temp. Dew Point Humidity Pressure Visibility Wind Dir Wind Speed Gust Speed Precip Events Conditions
12:00 AM 69 °F 66 °F 87% 29.82 in 12 mi NNE 4.6 mph - -   Scattered Clouds
12:00 AM 69.8 °F 66.2 °F 88% 29.97 in 6.2 mi NNE 4.6 mph - N/A   Mostly Cloudy
2:00 AM 68.0 °F 66.2 °F 94% 29.93 in 6.2 mi West 2.3 mph - N/A   Scattered Clouds
3:00 AM 68.0 °F 64.4 °F 88% 29.93 in 6.2 mi NNE 4.6 mph - N/A   Scattered Clouds
4:00 AM 68.0 °F 64.4 °F 88% 29.93 in - ESE 3.5 mph - N/A   Clear
5:00 AM 66.2 °F 62.6 °F 88% 29.94 in - NE 4.6 mph - N/A   Clear
6:00 AM 66 °F 62 °F 83% 29.82 in 12 mi SW 2.3 mph - -  
6:00 AM 66.2 °F 62.6 °F 88% 29.95 in 6.2 mi SW 2.3 mph - N/A   Mostly Cloudy
7:00 AM 69.8 °F 64.4 °F 83% 29.96 in - ESE 3.5 mph - N/A   Clear
8:00 AM 75.2 °F 66.2 °F 73% 29.99 in - Calm Calm - N/A   Clear
9:00 AM 77 °F 64 °F 57% 29.83 in 12 mi West 3.5 mph - -   Scattered Clouds
9:00 AM 77.0 °F 64.4 °F 65% 29.98 in 6.2 mi West 3.5 mph - N/A   Mostly Cloudy
10:00 AM 78.8 °F 66.2 °F 65% 29.97 in 6.2 mi WSW 6.9 mph - N/A   Mostly Cloudy
11:00 AM 78.8 °F 68.0 °F 69% 29.96 in 6.2 mi West 9.2 mph - N/A   Mostly Cloudy
12:00 PM 79 °F 69 °F 63% 29.79 in 12 mi WSW 10.4 mph - -   Partly Cloudy
12:00 PM 78.8 °F 68.0 °F 69% 29.95 in 6.2 mi WSW 10.4 mph - N/A   Mostly Cloudy
1:00 PM 78.8 °F 69.8 °F 74% 29.91 in 6.2 mi WSW 12.7 mph - N/A   Scattered Clouds
2:00 PM 77.0 °F 69.8 °F 78% 29.90 in 6.2 mi WSW 13.8 mph - N/A   Mostly Cloudy
3:00 PM 75 °F 68 °F 74% 29.77 in 9 mi WSW 10.4 mph - -   Overcast
3:00 PM 75.2 °F 68.0 °F 78% 29.91 in 6.2 mi WSW 10.4 mph - N/A   Mostly Cloudy
4:00 PM 73.4 °F 66.2 °F 78% 29.91 in 6.2 mi WSW 10.4 mph - N/A   Mostly Cloudy
5:00 PM 71.6 °F 66.2 °F 83% 29.94 in 6.2 mi SW 10.4 mph - N/A   Mostly Cloudy
6:00 PM 70 °F 67 °F 86% 29.81 in 9 mi SW 6.9 mph - -   Overcast
6:00 PM 69.8 °F 66.2 °F 88% 29.96 in 6.2 mi SW 6.9 mph - N/A   Mostly Cloudy
7:00 PM 69.8 °F 68.0 °F 94% 29.99 in 6.2 mi SW 9.2 mph - N/A Fog Mostly Cloudy
7:05 PM 69.8 °F 68.0 °F 94% 30.00 in 5.0 mi West 6.9 mph - N/A Rain , Thunderstorm Thunderstorms and Rain
8:00 PM 69.8 °F 66.2 °F 88% 30.04 in 3.1 mi WNW 4.6 mph - N/A Rain Rain
9:00 PM 67 °F 65 °F 93% 29.90 in 3 mi SE 2.3 mph - -   Mist
9:00 PM 68.0 °F 66.2 °F 94% 30.06 in 3.1 mi SE 2.3 mph - N/A Rain Light Rain
10:00 PM 66.2 °F 64.4 °F 94% 30.01 in 6.2 mi East 5.8 mph - N/A Rain Light Rain
11:00 PM 66.2 °F 64.4 °F 94% 29.95 in - East 4.6 mph - N/A   Clear